Location: Aragnouet
(42.7874°N, 0.2165°E)
Time: 16:24:02
(UTC+00:00)

Cosmos 1606 Rocket - Pass Details

Date: 09 April 2020
Orbit: 602 x 633 km, 82.5° (Epoch: 05 June)

Event Time Altitude Azimuth Distance (km) Brightness Sun altitude
Rises 19:24:34 0° 188° (S) 2,890 6.9 -9.6°
Reaches altitude 10° 19:26:46 10° 188° (S) 1,993 6.0 -10.0°
Maximum altitude 19:31:12 86° 278° (W) 637 3.6 -10.7°
Drops below altitude 10° 19:35:42 10° 7° (N) 2,023 6.4 -11.5°
Sets 19:37:58 0° 8° (N) 2,937 7.2 -11.9°
